Home   Weather   Kagoshima   Past weeks

Flag for Japan Past Weather in Kagoshima, Japan — Yesterday and Last 2 Weeks

Now
52 °F

Passing clouds.


Feels Like: 51 °F
Forecast: 43 / 59 °F
Wind: 3 mph from North

Location: Kagoshima

Current Time: Dec 10, 2016 at 10:03:34 pm

Latest Report: Dec 10, 2016 at 9:00 pm


Visibility: 16 mi

Pressure: 30.17 "Hg

Humidity: 55%

Dew Point: 36 °F

Location of KagoshimaLocation

Past Weather in Kagoshima — Graph

°F

Kagoshima Temperature Yesterday

Maximum temperature yesterday: 69 °F (at 12:00 pm)
Minimum temperature yesterday: 47 °F (at 6:00 am)
Average temperature yesterday: 56 °F

High & Low Weather Summary for the Past Weeks

 TemperatureHumidityPressure
High69 °F (Dec 9, 12:00 pm)100% (Nov 27, 6:00 am)30.39 "Hg (Nov 27, 6:00 am)
Low43 °F (Nov 29, 7:00 am)34% (Dec 10, 2:00 pm)29.88 "Hg (Nov 27, 6:00 am)
Average57 °F73%30.17 "Hg
* Reported Nov 25 8:00 pm — Dec 10 8:00 pm, Kagoshima, Weather by CustomWeather, © 2016

Note: Actual official high and low records may vary slightly from our data, if they occured in-between our weather recording intervals... More about our weather records

Advertising

Kagoshima Weather History for the Previous 24 Hours

Scroll right to see more
 ConditionsComfort  
Time TempWeatherWind HumidityBarometerVisibility
8:00 pm
Sat, Dec 10
52 °FCool.6 mph53%30.16 "HgN/A
7:00 pm53 °FCool.8 mph49%30.15 "HgN/A
6:00 pm54 °FPassing clouds.9 mph43%30.14 "Hg19 mi
5:00 pm58 °FRefreshingly cool.10 mph37%30.11 "HgN/A
4:00 pm60 °FRefreshingly cool.9 mph39%30.11 "HgN/A
3:00 pm61 °FScattered clouds.6 mph40%30.10 "Hg19 mi
2:00 pm61 °FRefreshingly cool.7 mph34%30.10 "HgN/A
9:00 am52 °FSunny.8 mph69%30.17 "Hg9 mi
8:00 am46 °FCool.10 mph82%30.16 "HgN/A
7:00 am45 °FQuite cool.9 mph86%30.14 "HgN/A
6:00 am44 °FClear.9 mph89%30.13 "Hg9 mi
5:00 am46 °FCool.7 mph85%30.12 "HgN/A
4:00 am46 °FCool.8 mph86%30.11 "HgN/A
3:00 am46 °FClear.9 mph86%30.11 "Hg9 mi
2:00 am47 °FCool.7 mph83%30.11 "HgN/A
1:00 am47 °FCool.6 mph81%30.11 "HgN/A
12:00 am50 °FCool.7 mph76%30.11 "HgN/A
11:00 pm
Fri, Dec 9
51 °FCool.6 mph71%30.11 "HgN/A
Weather by CustomWeather, © 2016

See weather overviewHow to use our weather pages